Dunkirk, NY

4:49 PM EDT on May 24, 2017 (GMT -0400)
Chautauqua County-Dunkirk

Weather History for KDKK - October, 2012

Change the Weather History Date:

Wednesday, October 24, 2012

  Actual Average Record
Temperature  
Mean Temperature 60 °F -  
Max Temperature 64 °F 60 °F 79 °F (1975)
Min Temperature 55 °F 41 °F 27 °F (1980)
Degree Days  
Heating Degree Days 6    
Growing Degree Days 10 (Base 50)    
Moisture  
Dew Point 57 °F    
Average Humidity 96    
Maximum Humidity 100    
Minimum Humidity 86    
Precipitation  
Precipitation 0.03 in - - ()
Sea Level Pressure  
Sea Level Pressure 30.07 in    
Wind  
Wind Speed 0 mph (North)    
Max Wind Speed 7 mph    
Max Gust Speed -    
Visibility 4 miles    
Events Fog , Rain    
Averages and records for this station are not official NWS values.
T = Trace of Precipitation, MM = Missing Value Source: NWS Daily Summary

Daily Weather History Graph

Daily Weather History Graph

Search for Another Location

Airport or City:

Trip Planner

Search our weather history database for the weather conditions in past years. The results will help you decide how hot, cold, wet, or windy it might be!

Date:

Astronomy

Oct. 24, 2012 Rise Set
Actual Time 7:41 AM EDT 6:20 PM EDT
Civil Twilight 7:12 AM EDT 6:49 PM EDT
Nautical Twilight 6:39 AM EDT 7:22 PM EDT
Astronomical Twilight 6:06 AM EDT 7:54 PM EDT
Moon 3:40 PM EDT 2:28 AM EDT
Length of Visible Light 11h 36m
Length of Day
10h 39m
Waxing Gibbous, 76% of the Moon is Illuminated
Oct 24
Waxing Gibbous
Oct 29
Full
Nov 6
Last Quarter
Nov 13
New
Nov 20
First Quarter

Hourly Weather History & Observations

Time (EDT) Temp. Dew Point Humidity Pressure Visibility Wind Dir Wind Speed Gust Speed Precip Events Conditions
12:06 AM 57.2 °F 57.2 °F 100% 30.06 in 2.0 mi Calm Calm - 0.00 in Rain Light Rain
12:23 AM 57.2 °F 57.2 °F 100% 30.06 in 1.8 mi Calm Calm - 0.00 in   Overcast
12:48 AM 57.2 °F 57.2 °F 100% 30.06 in 1.5 mi Calm Calm - 0.00 in Rain Light Rain
12:53 AM 57.9 °F 57.0 °F 97% 30.06 in 1.8 mi Calm Calm - 0.00 in Rain Light Rain
1:09 AM 57.2 °F 57.2 °F 100% 30.06 in 0.8 mi Calm Calm - 0.01 in Rain Light Rain
1:13 AM 57.2 °F 57.2 °F 100% 30.06 in 0.8 mi Calm Calm - 0.01 in   Overcast
2:53 AM 57.0 °F 55.9 °F 96% 30.06 in 0.5 mi Calm Calm - N/A Fog Fog
3:47 AM 55.4 °F 55.4 °F 100% 30.05 in 1.0 mi Calm Calm - 0.01 in Rain Light Rain
3:50 AM 55.4 °F 55.4 °F 100% 30.05 in 1.2 mi Calm Calm - 0.02 in Rain Rain
3:53 AM 55.9 °F 55.0 °F 97% 30.06 in 1.2 mi Calm Calm - 0.03 in Rain Rain
4:01 AM 55.4 °F 55.4 °F 100% 30.05 in 1.2 mi Calm Calm - 0.00 in Rain Light Rain
4:08 AM 55.4 °F 55.4 °F 100% 30.05 in 1.5 mi Calm Calm - 0.00 in Rain Light Rain
4:24 AM 55.4 °F 55.4 °F 100% 30.05 in 1.0 mi Calm Calm - 0.00 in   Overcast
4:44 AM 55.4 °F 55.4 °F 100% 30.05 in 1.2 mi Calm Calm - 0.00 in   Overcast
4:53 AM 55.9 °F 55.0 °F 97% 30.06 in 1.5 mi Calm Calm - 0.00 in   Overcast
5:12 AM 55.4 °F 55.4 °F 100% 30.06 in 1.0 mi Calm Calm - N/A   Overcast
5:32 AM 55.4 °F 55.4 °F 100% 30.06 in 1.5 mi North 4.6 mph - N/A   Overcast
5:44 AM 55.4 °F 55.4 °F 100% 30.07 in 2.0 mi NNE 3.5 mph - N/A   Overcast
5:53 AM 55.9 °F 55.0 °F 97% 30.07 in 2.5 mi Calm Calm - N/A   Overcast
6:50 AM 55.4 °F 55.4 °F 100% 30.08 in 1.5 mi Calm Calm - 0.00 in   Overcast
6:53 AM 55.9 °F 55.0 °F 97% 30.08 in 1.5 mi Calm Calm - 0.00 in   Overcast
7:38 AM 55.4 °F 55.4 °F 100% 30.09 in 2.5 mi Calm Calm - N/A   Overcast
7:53 AM 55.0 °F 54.0 °F 96% 30.09 in 3.0 mi Calm Calm - N/A   Overcast
8:05 AM 55.4 °F 53.6 °F 94% 30.09 in 2.0 mi Calm Calm - N/A   Overcast
8:12 AM 55.4 °F 55.4 °F 100% 30.09 in 1.8 mi Calm Calm - N/A   Overcast
8:37 AM 55.4 °F 55.4 °F 100% 30.09 in 2.0 mi Calm Calm - 0.00 in Rain Light Rain
8:53 AM 55.9 °F 55.0 °F 97% 30.10 in 2.5 mi Calm Calm - 0.00 in   Overcast
9:06 AM 55.4 °F 55.4 °F 100% 30.10 in 2.0 mi Calm Calm - N/A   Overcast
9:48 AM 57.2 °F 55.4 °F 94% 30.10 in 3.0 mi Calm Calm - N/A   Overcast
9:53 AM 57.0 °F 55.9 °F 96% 30.10 in 3.0 mi Calm Calm - N/A   Overcast
10:53 AM 60.1 °F 57.9 °F 93% 30.09 in 6.0 mi Calm Calm - N/A   Overcast
12:38 PM 62.6 °F 60.8 °F 94% 30.07 in 6.0 mi Calm Calm - N/A   Overcast
12:53 PM 64.0 °F 60.1 °F 87% 30.07 in 9.0 mi Calm Calm - N/A   Overcast
1:53 PM 64.0 °F 60.1 °F 87% 30.07 in 8.0 mi NNW 3.5 mph - N/A   Overcast
2:53 PM 64.0 °F 60.1 °F 87% 30.06 in 9.0 mi NNW 6.9 mph - N/A   Overcast
3:53 PM 62.1 °F 57.9 °F 86% 30.06 in 9.0 mi ENE 3.5 mph - N/A   Overcast
4:53 PM 64.0 °F 60.1 °F 87% 30.05 in 10.0 mi Calm Calm - N/A   Overcast
5:53 PM 64.0 °F 60.1 °F 87% 30.06 in 10.0 mi Calm Calm - N/A   Overcast
6:53 PM 63.0 °F 60.1 °F 90% 30.07 in 10.0 mi Calm Calm - N/A   Overcast
7:53 PM 61.0 °F 59.0 °F 93% 30.08 in 9.0 mi Calm Calm - N/A   Overcast
9:53 PM 62.1 °F 59.0 °F 90% 30.08 in 10.0 mi Calm Calm - N/A   Overcast
10:53 PM 59.0 °F 57.9 °F 96% 30.07 in 7.0 mi Calm Calm - N/A   Overcast
11:53 PM 59.0 °F 57.0 °F 93% 30.07 in 5.0 mi Calm Calm - N/A   Overcast